Time,TemperatureF,DewpointF,PressureIn,WindDirection,WindDirectionDegrees,WindSpeedMPH,WindSpeedGustMPH,Humidity,HourlyPrecipIn,Conditions,Clouds,dailyrainin,SoftwareType,DateUTC
2013-02-13 00:01:00,29.3,21.7,29.95,NNW,336,0.0,0.0,73,0.00,,,0.00,Wunderground v.1.15,2013-02-13 06:01:00,
2013-02-13 00:05:00,29.2,21.6,29.95,NNW,336,0.0,0.0,73,0.00,,,0.00,Wunderground v.1.15,2013-02-13 06:05:00,
2013-02-13 00:10:00,29.2,21.6,29.95,NNW,335,0.0,0.0,73,0.00,,,0.00,Wunderground v.1.15,2013-02-13 06:10:00,
2013-02-13 00:16:00,29.2,21.9,29.95,NNW,335,0.0,0.0,74,0.00,,,0.00,Wunderground v.1.15,2013-02-13 06:16:00,
2013-02-13 00:31:00,29.2,21.9,29.95,NNW,336,0.0,0.0,74,0.00,,,0.00,Wunderground v.1.15,2013-02-13 06:31:00,
2013-02-13 00:45:00,29.4,22.1,29.95,NNW,335,0.0,0.0,74,0.00,,,0.00,Wunderground v.1.15,2013-02-13 06:45:00,
2013-02-13 00:50:00,29.3,22.0,29.95,NNW,335,0.0,0.0,74,0.00,,,0.00,Wunderground v.1.15,2013-02-13 06:50:00,
2013-02-13 00:55:00,29.3,22.0,29.94,NNW,335,0.0,0.0,74,0.00,,,0.00,Wunderground v.1.15,2013-02-13 06:55:00,
2013-02-13 01:05:00,28.9,21.7,29.94,NNW,335,0.0,0.0,74,0.00,,,0.00,Wunderground v.1.15,2013-02-13 07:05:00,
2013-02-13 01:15:00,28.6,21.7,29.94,NNW,335,0.0,0.0,75,0.00,,,0.00,Wunderground v.1.15,2013-02-13 07:15:00,
2013-02-13 01:25:00,27.9,21.3,29.94,NNW,335,0.0,0.0,76,0.00,,,0.00,Wunderground v.1.15,2013-02-13 07:25:00,
2013-02-13 01:36:00,27.9,21.9,29.94,NNW,336,0.0,0.0,78,0.00,,,0.00,Wunderground v.1.15,2013-02-13 07:36:00,
2013-02-13 01:45:00,27.9,21.6,29.94,NNW,335,0.0,0.0,77,0.00,,,0.00,Wunderground v.1.15,2013-02-13 07:45:00,
2013-02-13 01:55:00,27.7,21.7,29.94,NNW,335,0.0,0.0,78,0.00,,,0.00,Wunderground v.1.15,2013-02-13 07:55:00,
2013-02-13 02:00:00,27.7,21.7,29.94,NNW,336,0.0,0.0,78,0.00,,,0.00,Wunderground v.1.15,2013-02-13 08:00:00,
2013-02-13 02:10:00,28.1,22.1,29.94,NNW,335,0.0,0.0,78,0.00,,,0.00,Wunderground v.1.15,2013-02-13 08:10:00,
2013-02-13 02:15:00,28.3,22.0,29.94,NNW,335,0.0,0.0,77,0.00,,,0.00,Wunderground v.1.15,2013-02-13 08:15:00,
2013-02-13 02:25:00,28.5,22.2,29.94,NNW,335,0.0,0.0,77,0.00,,,0.00,Wunderground v.1.15,2013-02-13 08:25:00,
2013-02-13 02:30:00,28.5,22.2,29.94,NNW,336,0.0,0.0,77,0.00,,,0.00,Wunderground v.1.15,2013-02-13 08:30:00,
2013-02-13 02:45:00,28.2,22.2,29.93,NNW,335,0.0,0.0,78,0.00,,,0.00,Wunderground v.1.15,2013-02-13 08:45:00,
2013-02-13 02:55:00,28.1,22.1,29.92,NNW,335,0.0,0.0,78,0.00,,,0.00,Wunderground v.1.15,2013-02-13 08:55:00,
2013-02-13 03:01:00,28.1,22.1,29.92,NNW,336,0.0,0.0,78,0.00,,,0.00,Wunderground v.1.15,2013-02-13 09:01:00,
2013-02-13 03:20:00,27.4,21.7,29.92,NNW,335,0.0,0.0,79,0.00,,,0.00,Wunderground v.1.15,2013-02-13 09:20:00,
2013-02-13 03:25:00,27.3,21.9,29.92,NNW,335,0.0,0.0,80,0.00,,,0.00,Wunderground v.1.15,2013-02-13 09:25:00,
2013-02-13 03:35:00,27.1,21.7,29.92,NNW,335,0.0,0.0,80,0.00,,,0.00,Wunderground v.1.15,2013-02-13 09:35:00,
2013-02-13 03:46:00,26.9,21.6,29.92,SSW,211,0.0,0.0,80,0.00,,,0.00,Wunderground v.1.15,2013-02-13 09:46:00,
2013-02-13 04:01:00,26.7,21.7,29.92,SSW,211,0.0,0.0,81,0.00,,,0.00,Wunderground v.1.15,2013-02-13 10:01:00,
2013-02-13 04:10:00,26.6,21.6,29.92,SW,233,0.0,0.0,81,0.00,,,0.00,Wunderground v.1.15,2013-02-13 10:10:00,
2013-02-13 04:20:00,26.5,21.5,29.91,WSW,245,0.0,0.0,81,0.00,,,0.00,Wunderground v.1.15,2013-02-13 10:20:00,
2013-02-13 04:25:00,26.5,21.5,29.91,WSW,249,0.0,0.0,81,0.00,,,0.00,Wunderground v.1.15,2013-02-13 10:25:00,
2013-02-13 04:35:00,26.6,21.8,29.91,West,273,0.0,0.0,82,0.00,,,0.00,Wunderground v.1.15,2013-02-13 10:35:00,
2013-02-13 04:50:00,26.6,21.6,29.90,West,273,0.0,0.0,81,0.00,,,0.00,Wunderground v.1.15,2013-02-13 10:50:00,
2013-02-13 05:20:00,25.8,21.3,29.89,West,273,0.0,0.0,83,0.00,,,0.00,Wunderground v.1.15,2013-02-13 11:20:00,
2013-02-13 05:35:00,25.7,21.3,29.90,West,266,0.0,0.0,83,0.00,,,0.00,Wunderground v.1.15,2013-02-13 11:35:00,
2013-02-13 05:40:00,25.7,21.3,29.90,WSW,248,0.0,0.0,83,0.00,,,0.00,Wunderground v.1.15,2013-02-13 11:40:00,
2013-02-13 06:05:00,25.7,21.3,29.89,WNW,286,0.0,1.0,83,0.00,,,0.00,Wunderground v.1.15,2013-02-13 12:05:00,
2013-02-13 06:15:00,25.6,21.2,29.89,WNW,287,0.0,0.0,83,0.00,,,0.00,Wunderground v.1.15,2013-02-13 12:15:00,
2013-02-13 06:30:00,25.0,20.8,29.89,WNW,286,0.0,0.0,84,0.00,,,0.00,Wunderground v.1.15,2013-02-13 12:30:00,
2013-02-13 06:35:00,24.9,20.8,29.89,WNW,287,0.0,0.0,84,0.00,,,0.00,Wunderground v.1.15,2013-02-13 12:35:00,
2013-02-13 06:40:00,24.8,20.9,29.89,WNW,287,0.0,0.0,85,0.00,,,0.00,Wunderground v.1.15,2013-02-13 12:40:00,
2013-02-13 06:50:00,24.9,21.0,29.89,WNW,288,0.0,0.0,85,0.00,,,0.00,Wunderground v.1.15,2013-02-13 12:50:00,
2013-02-13 07:05:00,25.2,21.3,29.89,WNW,288,0.0,0.0,85,0.00,,,0.00,Wunderground v.1.15,2013-02-13 13:05:00,
2013-02-13 07:15:00,25.3,21.4,29.89,WNW,288,0.0,0.0,85,0.00,,,0.00,Wunderground v.1.15,2013-02-13 13:15:00,
2013-02-13 07:25:00,25.3,21.4,29.90,WNW,288,0.0,0.0,85,0.00,,,0.00,Wunderground v.1.15,2013-02-13 13:25:00,
2013-02-13 07:30:00,25.3,21.4,29.90,WNW,288,0.0,0.0,85,0.00,,,0.00,Wunderground v.1.15,2013-02-13 13:30:00,
2013-02-13 07:40:00,25.1,21.2,29.90,WNW,288,0.0,0.0,85,0.00,,,0.00,Wunderground v.1.15,2013-02-13 13:40:00,
2013-02-13 07:55:00,25.0,21.1,29.90,WNW,288,0.0,0.0,85,0.00,,,0.00,Wunderground v.1.15,2013-02-13 13:55:00,
2013-02-13 08:05:00,25.2,21.6,29.90,WNW,288,0.0,0.0,86,0.00,,,0.00,Wunderground v.1.15,2013-02-13 14:05:00,
2013-02-13 08:15:00,25.7,21.8,29.90,WNW,286,0.0,0.0,85,0.00,,,0.00,Wunderground v.1.15,2013-02-13 14:15:00,
2013-02-13 08:20:00,26.0,22.1,29.90,SSW,211,0.0,0.0,85,0.00,,,0.00,Wunderground v.1.15,2013-02-13 14:20:00,
2013-02-13 08:30:00,26.3,22.1,29.90,SSW,210,0.0,0.0,84,0.00,,,0.00,Wunderground v.1.15,2013-02-13 14:30:00,
2013-02-13 08:35:00,26.5,22.3,29.90,WSW,240,0.0,0.0,84,0.00,,,0.00,Wunderground v.1.15,2013-02-13 14:35:00,
2013-02-13 08:55:00,27.4,22.9,29.90,WSW,243,0.0,0.0,83,0.00,,,0.00,Wunderground v.1.15,2013-02-13 14:55:00,
2013-02-13 09:00:00,27.6,23.1,29.90,WSW,243,0.0,0.0,83,0.00,,,0.00,Wunderground v.1.15,2013-02-13 15:00:00,
2013-02-13 09:10:00,28.4,23.9,29.90,WSW,247,0.0,0.0,83,0.00,,,0.00,Wunderground v.1.15,2013-02-13 15:10:00,
2013-02-13 09:15:00,29.2,24.4,29.90,SSW,208,0.0,2.0,82,0.00,,,0.00,Wunderground v.1.15,2013-02-13 15:15:00,
2013-02-13 09:30:00,30.6,25.2,29.90,WSW,257,0.0,0.0,80,0.00,,,0.00,Wunderground v.1.15,2013-02-13 15:30:00,
2013-02-13 09:40:00,31.3,25.8,29.89,SW,215,0.0,2.0,80,0.00,,,0.00,Wunderground v.1.15,2013-02-13 15:40:00,
2013-02-13 09:45:00,31.5,25.7,29.90,WSW,252,0.0,2.0,79,0.00,,,0.00,Wunderground v.1.15,2013-02-13 15:45:00,
2013-02-13 09:55:00,31.7,25.9,29.89,SSW,194,0.0,0.0,79,0.00,,,0.00,Wunderground v.1.15,2013-02-13 15:55:00,
2013-02-13 10:01:00,32.0,26.2,29.89,SSW,211,0.0,1.0,79,0.00,,,0.00,Wunderground v.1.15,2013-02-13 16:01:00,
2013-02-13 10:10:00,33.4,27.3,29.89,SSW,213,1.0,1.0,78,0.00,,,0.00,Wunderground v.1.15,2013-02-13 16:10:00,
2013-02-13 10:31:00,35.9,29.1,29.88,SW,233,1.0,1.0,76,0.00,,,0.00,Wunderground v.1.15,2013-02-13 16:31:00,
2013-02-13 10:40:00,37.1,29.2,29.88,SW,225,1.0,2.0,73,0.00,,,0.00,Wunderground v.1.15,2013-02-13 16:40:00,
2013-02-13 10:50:00,38.2,29.6,29.88,WSW,244,2.0,2.0,71,0.00,,,0.00,Wunderground v.1.15,2013-02-13 16:50:00,
2013-02-13 10:55:00,38.6,30.0,29.88,SSW,213,2.0,2.0,71,0.00,,,0.00,Wunderground v.1.15,2013-02-13 16:55:00,
2013-02-13 11:01:00,39.3,30.3,29.88,SW,228,2.0,2.0,70,0.00,,,0.00,Wunderground v.1.15,2013-02-13 17:01:00,
2013-02-13 11:10:00,39.9,30.2,29.88,SSW,194,2.0,2.0,68,0.00,,,0.00,Wunderground v.1.15,2013-02-13 17:10:00,
2013-02-13 11:20:00,40.8,30.3,29.87,SW,219,2.0,2.0,66,0.00,,,0.00,Wunderground v.1.15,2013-02-13 17:20:00,
2013-02-13 11:25:00,41.2,30.7,29.87,WNW,292,2.0,3.0,66,0.00,,,0.00,Wunderground v.1.15,2013-02-13 17:25:00,
2013-02-13 11:35:00,42.1,30.4,29.87,South,179,2.0,2.0,63,0.00,,,0.00,Wunderground v.1.15,2013-02-13 17:35:00,
2013-02-13 11:41:00,42.6,30.5,29.87,WNW,300,2.0,2.0,62,0.00,,,0.00,Wunderground v.1.15,2013-02-13 17:41:00,
2013-02-13 11:46:00,43.1,29.7,29.87,South,173,2.0,5.0,59,0.00,,,0.00,Wunderground v.1.15,2013-02-13 17:46:00,
2013-02-13 12:01:00,44.0,29.7,29.86,NW,311,2.0,2.0,57,0.00,,,0.00,Wunderground v.1.15,2013-02-13 18:01:00,
2013-02-13 12:11:00,44.6,30.3,29.85,WNW,289,2.0,3.0,57,0.00,,,0.00,Wunderground v.1.15,2013-02-13 18:11:00,
2013-02-13 12:20:00,45.3,31.0,29.85,SSE,155,2.0,3.0,57,0.00,,,0.00,Wunderground v.1.15,2013-02-13 18:20:00,
2013-02-13 12:26:00,45.8,31.0,29.84,South,183,2.0,4.0,56,0.00,,,0.00,Wunderground v.1.15,2013-02-13 18:26:00,
2013-02-13 12:35:00,46.5,30.7,29.84,SW,218,2.0,3.0,54,0.00,,,0.00,Wunderground v.1.15,2013-02-13 18:35:00,
2013-02-13 12:40:00,46.8,31.0,29.83,SSW,210,2.0,3.0,54,0.00,,,0.00,Wunderground v.1.15,2013-02-13 18:40:00,
2013-02-13 12:46:00,47.2,30.5,29.83,SSW,212,3.0,5.0,52,0.00,,,0.00,Wunderground v.1.15,2013-02-13 18:46:00,
2013-02-13 12:55:00,47.9,31.1,29.83,SW,219,2.0,5.0,52,0.00,,,0.00,Wunderground v.1.15,2013-02-13 18:55:00,
2013-02-13 13:10:00,48.8,30.5,29.82,SSW,207,4.0,5.0,49,0.00,,,0.00,Wunderground v.1.15,2013-02-13 19:10:00,
2013-02-13 13:21:00,49.3,30.9,29.81,SW,232,3.0,3.0,49,0.00,,,0.00,Wunderground v.1.15,2013-02-13 19:21:00,
2013-02-13 13:25:00,49.6,30.7,29.81,South,183,3.0,3.0,48,0.00,,,0.00,Wunderground v.1.15,2013-02-13 19:25:00,
2013-02-13 13:35:00,50.7,30.1,29.81,WSW,243,3.0,3.0,45,0.00,,,0.00,Wunderground v.1.15,2013-02-13 19:35:00,
2013-02-13 13:51:00,51.4,29.6,29.80,WNW,282,4.0,4.0,43,0.00,,,0.00,Wunderground v.1.15,2013-02-13 19:51:00,
2013-02-13 14:00:00,51.7,29.9,29.80,WNW,293,3.0,3.0,43,0.00,,,0.00,Wunderground v.1.15,2013-02-13 20:00:00,
2013-02-13 14:05:00,51.9,30.1,29.80,South,188,3.0,5.0,43,0.00,,,0.00,Wunderground v.1.15,2013-02-13 20:05:00,
2013-02-13 14:15:00,52.3,29.9,29.79,WSW,248,4.0,4.0,42,0.00,,,0.00,Wunderground v.1.15,2013-02-13 20:15:00,
2013-02-13 14:20:00,52.3,29.3,29.79,WNW,297,4.0,4.0,41,0.00,,,0.00,Wunderground v.1.15,2013-02-13 20:20:00,
2013-02-13 14:30:00,52.4,29.4,29.79,WSW,239,4.0,4.0,41,0.00,,,0.00,Wunderground v.1.15,2013-02-13 20:30:00,
2013-02-13 14:35:00,52.4,29.4,29.78,WSW,246,4.0,4.0,41,0.00,,,0.00,Wunderground v.1.15,2013-02-13 20:35:00,
2013-02-13 14:45:00,52.8,29.7,29.78,SW,232,3.0,6.0,41,0.00,,,0.00,Wunderground v.1.15,2013-02-13 20:45:00,
2013-02-13 14:55:00,53.1,29.4,29.78,WSW,247,4.0,4.0,40,0.00,,,0.00,Wunderground v.1.15,2013-02-13 20:55:00,
2013-02-13 15:05:00,53.1,29.4,29.77,West,263,4.0,5.0,40,0.00,,,0.00,Wunderground v.1.15,2013-02-13 21:05:00,
2013-02-13 15:15:00,53.1,28.8,29.77,SW,226,4.0,5.0,39,0.00,,,0.00,Wunderground v.1.15,2013-02-13 21:15:00,
2013-02-13 15:25:00,53.2,28.9,29.77,SSW,194,4.0,4.0,39,0.00,,,0.00,Wunderground v.1.15,2013-02-13 21:25:00,
2013-02-13 15:30:00,53.3,29.6,29.76,WNW,283,4.0,4.0,40,0.00,,,0.00,Wunderground v.1.15,2013-02-13 21:30:00,
2013-02-13 15:40:00,53.4,29.0,29.76,WNW,302,3.0,3.0,39,0.00,,,0.00,Wunderground v.1.15,2013-02-13 21:40:00,
2013-02-13 15:51:00,53.4,29.0,29.76,West,270,3.0,3.0,39,0.00,,,0.00,Wunderground v.1.15,2013-02-13 21:51:00,
2013-02-13 16:00:00,53.5,27.8,29.76,SW,229,4.0,5.0,37,0.00,,,0.00,Wunderground v.1.15,2013-02-13 22:00:00,
2013-02-13 16:10:00,53.3,28.3,29.76,WSW,245,4.0,4.0,38,0.00,,,0.00,Wunderground v.1.15,2013-02-13 22:10:00,
2013-02-13 16:21:00,53.3,28.3,29.76,SW,219,3.0,4.0,38,0.00,,,0.00,Wunderground v.1.15,2013-02-13 22:21:00,
2013-02-13 16:30:00,52.5,28.8,29.76,WNW,286,3.0,4.0,40,0.00,,,0.00,Wunderground v.1.15,2013-02-13 22:30:00,
2013-02-13 16:36:00,52.2,28.6,29.76,SW,214,3.0,7.0,40,0.00,,,0.00,Wunderground v.1.15,2013-02-13 22:36:00,
2013-02-13 16:45:00,52.0,28.4,29.76,WSW,256,3.0,3.0,40,0.00,,,0.00,Wunderground v.1.15,2013-02-13 22:45:00,
2013-02-13 16:55:00,52.0,29.0,29.76,West,280,3.0,3.0,41,0.00,,,0.00,Wunderground v.1.15,2013-02-13 22:55:00,
2013-02-13 17:00:00,52.1,28.5,29.76,SW,224,3.0,3.0,40,0.00,,,0.00,Wunderground v.1.15,2013-02-13 23:00:00,
2013-02-13 17:10:00,51.7,28.7,29.76,West,270,3.0,3.0,41,0.00,,,0.00,Wunderground v.1.15,2013-02-13 23:10:00,
2013-02-13 17:20:00,51.7,29.3,29.76,SW,236,2.0,2.0,42,0.00,,,0.00,Wunderground v.1.15,2013-02-13 23:20:00,
2013-02-13 17:30:00,51.4,29.1,29.76,SW,224,2.0,2.0,42,0.00,,,0.00,Wunderground v.1.15,2013-02-13 23:30:00,
2013-02-13 17:45:00,50.2,29.1,29.76,WSW,240,2.0,2.0,44,0.00,,,0.00,Wunderground v.1.15,2013-02-13 23:45:00,
2013-02-13 18:00:00,49.1,28.7,29.76,WSW,243,1.0,1.0,45,0.00,,,0.00,Wunderground v.1.15,2013-02-14 00:00:00,
2013-02-13 18:10:00,48.8,28.9,29.76,SSW,212,1.0,2.0,46,0.00,,,0.00,Wunderground v.1.15,2013-02-14 00:10:00,
2013-02-13 18:15:00,48.6,29.3,29.75,SW,218,1.0,2.0,47,0.00,,,0.00,Wunderground v.1.15,2013-02-14 00:15:00,
2013-02-13 18:25:00,48.4,28.5,29.75,WSW,257,1.0,2.0,46,0.00,,,0.00,Wunderground v.1.15,2013-02-14 00:25:00,
2013-02-13 18:35:00,48.1,28.8,29.76,West,271,1.0,1.0,47,0.00,,,0.00,Wunderground v.1.15,2013-02-14 00:35:00,
2013-02-13 18:40:00,47.9,28.6,29.76,West,271,1.0,1.0,47,0.00,,,0.00,Wunderground v.1.15,2013-02-14 00:40:00,
2013-02-13 18:45:00,47.7,28.9,29.76,WSW,257,1.0,1.0,48,0.00,,,0.00,Wunderground v.1.15,2013-02-14 00:45:00,
2013-02-13 18:55:00,47.3,28.6,29.76,WSW,255,1.0,1.0,48,0.00,,,0.00,Wunderground v.1.15,2013-02-14 00:55:00,
2013-02-13 19:00:00,47.3,28.6,29.76,WSW,253,1.0,1.0,48,0.00,,,0.00,Wunderground v.1.15,2013-02-14 01:00:00,
2013-02-13 19:06:00,47.2,28.5,29.76,WSW,249,0.0,1.0,48,0.00,,,0.00,Wunderground v.1.15,2013-02-14 01:06:00,
2013-02-13 19:15:00,47.0,28.8,29.76,West,271,0.0,0.0,49,0.00,,,0.00,Wunderground v.1.15,2013-02-14 01:15:00,
2013-02-13 19:21:00,46.9,28.7,29.76,WSW,252,0.0,1.0,49,0.00,,,0.00,Wunderground v.1.15,2013-02-14 01:21:00,
2013-02-13 19:30:00,46.9,28.7,29.77,West,281,1.0,1.0,49,0.00,,,0.00,Wunderground v.1.15,2013-02-14 01:30:00,
2013-02-13 19:40:00,46.7,28.5,29.76,West,259,1.0,1.0,49,0.00,,,0.00,Wunderground v.1.15,2013-02-14 01:40:00,
2013-02-13 19:45:00,46.3,28.7,29.77,West,263,1.0,1.0,50,0.00,,,0.00,Wunderground v.1.15,2013-02-14 01:45:00,
2013-02-13 19:55:00,45.8,28.7,29.77,WSW,257,0.0,1.0,51,0.00,,,0.00,Wunderground v.1.15,2013-02-14 01:55:00,
2013-02-13 20:00:00,45.6,29.0,29.77,WSW,250,0.0,0.0,52,0.00,,,0.00,Wunderground v.1.15,2013-02-14 02:00:00,
2013-02-13 20:10:00,45.1,28.5,29.77,WSW,256,0.0,0.0,52,0.00,,,0.00,Wunderground v.1.15,2013-02-14 02:10:00,
2013-02-13 20:15:00,45.0,28.9,29.77,West,269,0.0,0.0,53,0.00,,,0.00,Wunderground v.1.15,2013-02-14 02:15:00,
2013-02-13 20:30:00,44.7,28.6,29.77,WNW,291,0.0,0.0,53,0.00,,,0.00,Wunderground v.1.15,2013-02-14 02:30:00,
2013-02-13 20:40:00,44.5,28.9,29.77,West,261,0.0,0.0,54,0.00,,,0.00,Wunderground v.1.15,2013-02-14 02:40:00,
2013-02-13 20:45:00,44.2,28.6,29.77,WSW,252,0.0,0.0,54,0.00,,,0.00,Wunderground v.1.15,2013-02-14 02:45:00,
2013-02-13 20:51:00,44.0,28.9,29.76,West,260,0.0,1.0,55,0.00,,,0.00,Wunderground v.1.15,2013-02-14 02:51:00,
2013-02-13 21:00:00,43.5,28.4,29.77,West,280,0.0,0.0,55,0.00,,,0.00,Wunderground v.1.15,2013-02-14 03:00:00,
2013-02-13 21:10:00,43.1,28.5,29.77,West,280,0.0,1.0,56,0.00,,,0.00,Wunderground v.1.15,2013-02-14 03:10:00,
2013-02-13 21:20:00,42.9,28.7,29.77,WNW,295,1.0,1.0,57,0.00,,,0.00,Wunderground v.1.15,2013-02-14 03:20:00,
2013-02-13 21:25:00,42.9,28.7,29.77,WNW,288,1.0,1.0,57,0.00,,,0.00,Wunderground v.1.15,2013-02-14 03:25:00,
2013-02-13 21:30:00,42.8,28.6,29.77,WNW,288,1.0,2.0,57,0.00,,,0.00,Wunderground v.1.15,2013-02-14 03:30:00,
2013-02-13 21:45:00,42.8,28.6,29.78,West,280,1.0,1.0,57,0.00,,,0.00,Wunderground v.1.15,2013-02-14 03:45:00,
2013-02-13 22:05:00,42.4,28.7,29.78,WNW,297,1.0,1.0,58,0.00,,,0.00,Wunderground v.1.15,2013-02-14 04:05:00,
2013-02-13 22:10:00,42.2,28.9,29.78,WNW,287,1.0,1.0,59,0.00,,,0.00,Wunderground v.1.15,2013-02-14 04:10:00,
2013-02-13 22:16:00,41.9,29.0,29.78,WNW,288,1.0,1.0,60,0.00,,,0.00,Wunderground v.1.15,2013-02-14 04:16:00,
2013-02-13 22:25:00,41.6,29.1,29.79,WNW,295,1.0,1.0,61,0.00,,,0.00,Wunderground v.1.15,2013-02-14 04:25:00,
2013-02-13 22:31:00,41.6,29.1,29.79,WNW,294,1.0,1.0,61,0.00,,,0.00,Wunderground v.1.15,2013-02-14 04:31:00,
2013-02-13 22:40:00,41.5,29.4,29.79,WNW,297,0.0,1.0,62,0.00,,,0.00,Wunderground v.1.15,2013-02-14 04:40:00,
2013-02-13 22:46:00,41.8,29.3,29.79,NW,304,1.0,1.0,61,0.00,,,0.00,Wunderground v.1.15,2013-02-14 04:46:00,
2013-02-13 22:55:00,42.4,29.9,29.79,WNW,287,1.0,1.0,61,0.00,,,0.00,Wunderground v.1.15,2013-02-14 04:55:00,
2013-02-13 23:01:00,42.5,30.0,29.79,WNW,290,1.0,1.0,61,0.00,,,0.00,Wunderground v.1.15,2013-02-14 05:01:00,
2013-02-13 23:10:00,42.5,30.0,29.80,WNW,292,0.0,0.0,61,0.00,,,0.00,Wunderground v.1.15,2013-02-14 05:10:00,
2013-02-13 23:15:00,42.4,29.9,29.79,NW,307,1.0,1.0,61,0.00,,,0.00,Wunderground v.1.15,2013-02-14 05:15:00,
2013-02-13 23:20:00,42.3,29.8,29.79,WNW,293,0.0,0.0,61,0.00,,,0.00,Wunderground v.1.15,2013-02-14 05:20:00,
2013-02-13 23:25:00,42.2,30.1,29.79,WNW,290,0.0,1.0,62,0.00,,,0.00,Wunderground v.1.15,2013-02-14 05:25:00,
2013-02-13 23:35:00,42.3,30.2,29.79,WNW,301,1.0,1.0,62,0.00,,,0.00,Wunderground v.1.15,2013-02-14 05:35:00,
2013-02-13 23:45:00,42.3,30.2,29.80,WNW,302,1.0,1.0,62,0.00,,,0.00,Wunderground v.1.15,2013-02-14 05:45:00,
2013-02-13 23:50:00,42.2,30.1,29.80,NW,308,1.0,1.0,62,0.00,,,0.00,Wunderground v.1.15,2013-02-14 05:50:00,